Flag for Norway Weather past 2 weeks in Stavanger, Norway

Now
50 °F

Scattered showers. Broken clouds.


Feels Like: 50 °F
Forecast: 53 / 59 °F
Wind: No wind

Location: Stavanger / Sola

Current Time: Aug 22, 2014 at 9:02:35 AM

Latest Report: Aug 22, 2014 at 8:20 AM


Visibility: N/A

Pressure: 29.62 "Hg

Humidity: 94%

Dew point: 48 °F

Location of StavangerLocation

Historic Weather in Stavanger — Graph

°F

Stavanger temperature yesterday

Maximum temperature yesterday: 59 °F (at 2:50 PM)
Minimum temperature yesterday: 52 °F (at 2:50 AM)
Average temperature yesterday: 55 °F

Past Weeks' High & Low Weather Summary

 TemperatureHumidityPressure
High70 °F (Aug 8, 6:50 PM)100% (Aug 7, 10:20 AM)29.95 "Hg (Aug 7, 10:20 AM)
Low48 °F (Aug 22, 5:50 AM)46% (Aug 9, 3:20 PM)29.21 "Hg (Aug 18, 9:20 AM)
Average60 °F78%29.55 "Hg
* Reported Aug 7 7:20 AM — Aug 22 7:20 AM, Stavanger, Weather by CustomWeather, © 2014

Note: Actual official high and low records may vary slightly from our data, if they occured in-between our weather recording intervals... More about our weather records

Advertising

Stavanger weather history for previous 24 hours

 ConditionsComfort  
Time TempWeatherWind HumidityBarometerVisibility
7:20 AM
Aug 22
50 °FPartly sunny.1 mph94%29.62 "HgN/A
6:50 AM48 °FPassing clouds.2 mph100%29.62 "HgN/A
6:20 AM48 °FPassing clouds.2 mph94%29.62 "HgN/A
5:50 AM48 °FPartly cloudy.No wind100%29.62 "HgN/A
4:50 AM50 °FPartly cloudy.1 mph94%29.65 "HgN/A
3:50 AM52 °FPassing clouds.3 mph88%29.65 "HgN/A
2:50 AM52 °FPartly cloudy.3 mph82%29.65 "HgN/A
1:50 AM52 °FPartly cloudy.3 mph82%29.68 "HgN/A
12:50 AM52 °FPartly cloudy.1 mph82%29.68 "HgN/A
12:20 AM52 °FPartly cloudy.1 mph82%29.68 "HgN/A
11:50 PM
Aug 21
52 °FPartly cloudy.1 mph82%29.68 "HgN/A
11:20 PM52 °FPassing clouds.1 mph82%29.68 "HgN/A
10:50 PM52 °FPassing clouds.1 mph77%29.68 "HgN/A
10:20 PM54 °FPassing clouds.2 mph72%29.71 "HgN/A
9:50 PM54 °FPartly sunny.1 mph72%29.71 "HgN/A
9:20 PM55 °FBroken clouds.1 mph67%29.71 "HgN/A
8:50 PM55 °FBroken clouds.2 mph63%29.71 "HgN/A
8:20 PM55 °FPartly sunny.3 mph63%29.71 "HgN/A
7:50 PM55 °FPartly sunny.3 mph67%29.71 "HgN/A
7:20 PM57 °FScattered clouds.5 mph67%29.71 "HgN/A
6:50 PM57 °FPartly sunny.6 mph63%29.71 "HgN/A
6:20 PM59 °FScattered clouds.3 mph59%29.71 "HgN/A
5:50 PM57 °FPartly sunny.6 mph67%29.71 "HgN/A
5:20 PM57 °FPartly sunny.7 mph67%29.71 "HgN/A
4:50 PM57 °FScattered clouds.8 mph67%29.74 "HgN/A
4:20 PM59 °FScattered clouds.7 mph63%29.74 "HgN/A
3:50 PM59 °FScattered clouds.7 mph63%29.74 "HgN/A
3:20 PM59 °FScattered clouds.8 mph63%29.74 "HgN/A
2:50 PM59 °FScattered clouds.9 mph68%29.74 "HgN/A
2:20 PM57 °FScattered clouds.8 mph67%29.74 "HgN/A
1:50 PM57 °FBroken clouds.7 mph67%29.74 "HgN/A
1:20 PM57 °FScattered clouds.6 mph63%29.74 "HgN/A
12:50 PM57 °FScattered clouds.8 mph67%29.74 "HgN/A
12:20 PM57 °FScattered clouds.7 mph63%29.74 "HgN/A
11:50 AM57 °FScattered showers. Broken clouds.6 mph67%29.74 "HgN/A
11:20 AM55 °FScattered showers. Broken clouds.7 mph72%29.74 "HgN/A
10:50 AM57 °FScattered clouds.5 mph72%29.74 "HgN/A
10:20 AM57 °FBroken clouds.8 mph72%29.74 "HgN/A
9:50 AM57 °FScattered showers. Broken clouds.10 mph72%29.71 "HgN/A
9:20 AM54 °FScattered showers. Scattered clouds.8 mph82%29.71 "HgN/A
Weather by CustomWeather, © 2014

See weather overviewHow to use our weather pages